Location: Taukkyan
(23.1052°N, 94.0030°E)
Time: 11:34:36
(UTC+00:00)

YAOGAN 1 - Pass Details

Date: 06 July 2020
Orbit: 618 x 620 km, 97.9° (Epoch: 14 August)

Event Time Altitude Azimuth Distance (km) Brightness Sun altitude
Rises 13:05:11 0° 186° (S) 2,881 5.8 -7.3°
Reaches altitude 10° 13:07:30 10° 195° (SSW) 1,978 5.0 -7.7°
Maximum altitude 13:11:26 35° 261° (W) 1,010 4.2 -8.5°
Drops below altitude 10° 13:15:23 10° 327° (NNW) 1,985 6.3 -9.3°
Sets 13:17:43 0° 336° (NNW) 2,894 7.0 -9.8°
